Minot AFB, ND

1:10 PM CST on November 18, 2019 (GMT -0600)
Minot Air Force Base

Weather History for KMIB - September, 2019

Change the Weather History Date:

Saturday, September 7, 2019

  Actual Average Record
Temperature  
Mean Temperature 53 °F -  
Max Temperature 58 °F 72 °F 84 °F (1997)
Min Temperature 48 °F 48 °F 35 °F (2004)
Degree Days  
Heating Degree Days 12    
Growing Degree Days 3 (Base 50)    
Moisture  
Dew Point 48 °F    
Average Humidity 88    
Maximum Humidity 94    
Minimum Humidity 72    
Precipitation  
Precipitation 0.12 in - - ()
Sea Level Pressure  
Sea Level Pressure 30.17 in    
Wind  
Wind Speed 9 mph (East)    
Max Wind Speed 17 mph    
Max Gust Speed -    
Visibility 10 miles    
Events Rain    
Averages and records for this station are not official NWS values.
T = Trace of Precipitation, MM = Missing Value Source: NWS Daily Summary

Daily Weather History Graph

Daily Weather History Graph

Search for Another Location

Airport or City:

Astronomy

Sep. 07, 2019 Rise Set
Actual Time 7:10 AM CDT 8:15 PM CDT
Civil Twilight 6:38 AM CDT 8:46 PM CDT
Nautical Twilight 6:00 AM CDT 9:25 PM CDT
Astronomical Twilight 5:19 AM CDT 10:06 PM CDT
Moon 4:56 PM CDT (9/7) 12:42 AM CDT (9/7)
Length of Visible Light 14h 08m
Length of Day
13h 04m
Waxing Gibbous, 66% of the Moon is Illuminated
Sep 7
Waxing Gibbous
Sep 13
Full
Sep 21
Last Quarter
Sep 28
New
Oct 5
First Quarter

Hourly Weather History & Observations

Time (CDT) Temp. Dew Point Humidity Pressure Visibility Wind Dir Wind Speed Gust Speed Precip Events Conditions
12:56 AM 57.7 °F 48.7 °F 72% 30.15 in 10.0 mi Calm Calm - N/A   Clear
1:56 AM 58.1 °F 49.1 °F 72% 30.15 in 10.0 mi Calm Calm - N/A   Clear
2:07 AM 57.2 °F 50.0 °F 77% 30.14 in 10.0 mi Calm Calm - N/A Rain Light Rain
2:52 AM 57.2 °F 50.0 °F 77% 30.12 in 10.0 mi East 5.8 mph - N/A Rain Light Rain
2:56 AM 57.6 °F 50.4 °F 77% 30.12 in 10.0 mi ESE 4.6 mph - 0.02 in Rain Light Rain
3:06 AM 55.4 °F 50.0 °F 82% 30.14 in 10.0 mi ESE 3.5 mph - N/A Rain Light Rain
3:36 AM 55.4 °F 51.8 °F 88% 30.14 in 10.0 mi East 8.1 mph - N/A Rain Light Rain
3:56 AM 55.4 °F 50.7 °F 84% 30.14 in 10.0 mi East 8.1 mph - 0.03 in Rain Light Rain
4:46 AM 53.6 °F 51.8 °F 94% 30.14 in 10.0 mi East 11.5 mph - N/A   Mostly Cloudy
4:56 AM 54.3 °F 50.9 °F 88% 30.14 in 10.0 mi East 12.7 mph - 0.00 in   Scattered Clouds
5:00 AM 53.6 °F 51.8 °F 94% 30.13 in 10.0 mi East 11.5 mph - N/A   Light Drizzle
5:38 AM 53.6 °F 50.0 °F 88% 30.13 in 10.0 mi East 12.7 mph - N/A   Overcast
5:56 AM 53.6 °F 50.4 °F 89% 30.13 in 10.0 mi East 12.7 mph - 0.01 in   Overcast
5:58 AM 53.6 °F 50.0 °F 88% 30.14 in 10.0 mi East 12.7 mph - N/A   Light Drizzle
6:23 AM 53.6 °F 50.0 °F 88% 30.14 in 10.0 mi East 12.7 mph - N/A   Mostly Cloudy
6:52 AM 53.6 °F 50.0 °F 88% 30.15 in 10.0 mi East 16.1 mph - N/A   Light Drizzle
6:56 AM 52.9 °F 49.5 °F 88% 30.15 in 10.0 mi East 15.0 mph - 0.00 in   Light Drizzle
6:57 AM 53.6 °F 50.0 °F 88% 30.15 in 10.0 mi East 16.1 mph - N/A   Overcast
7:56 AM 52.2 °F 49.3 °F 90% 30.17 in 10.0 mi East 17.3 mph - 0.00 in   Mostly Cloudy
8:21 AM 51.8 °F 50.0 °F 94% 30.17 in 10.0 mi East 16.1 mph - N/A   Overcast
8:51 AM 51.8 °F 48.2 °F 88% 30.20 in 10.0 mi East 15.0 mph - N/A   Overcast
8:55 AM 51.8 °F 48.2 °F 88% 30.20 in 10.0 mi ENE 13.8 mph - N/A Rain Light Rain
8:56 AM 50.9 °F 48.7 °F 92% 30.20 in 10.0 mi ENE 13.8 mph - 0.00 in Rain Light Rain
9:06 AM 50.0 °F 48.2 °F 94% 30.20 in 10.0 mi East 17.3 mph - N/A Rain Light Rain
9:51 AM 50.0 °F 48.2 °F 94% 30.19 in 10.0 mi East 15.0 mph - N/A   Light Drizzle
9:52 AM 50.0 °F 48.2 °F 94% 30.19 in 10.0 mi East 17.3 mph - N/A   Mostly Cloudy
9:56 AM 49.6 °F 47.5 °F 92% 30.18 in 10.0 mi East 16.1 mph - 0.00 in   Mostly Cloudy
10:06 AM 50.0 °F 48.2 °F 94% 30.18 in 10.0 mi East 17.3 mph - N/A   Scattered Clouds
10:56 AM 49.6 °F 46.6 °F 89% 30.17 in 10.0 mi East 16.1 mph - N/A   Mostly Cloudy
11:56 AM 49.8 °F 46.4 °F 88% 30.17 in 10.0 mi ENE 15.0 mph - N/A   Clear
12:25 PM 50.0 °F 46.4 °F 87% 30.17 in 10.0 mi East 13.8 mph - N/A Rain Light Rain
12:55 PM 50.0 °F 46.4 °F 87% 30.18 in 10.0 mi ENE 12.7 mph - N/A Rain Light Rain
12:56 PM 49.6 °F 47.1 °F 91% 30.18 in 10.0 mi East 12.7 mph - 0.01 in Rain Light Rain
1:11 PM 50.0 °F 46.4 °F 87% 30.18 in 10.0 mi East 15.0 mph - N/A Rain Light Rain
1:56 PM 50.2 °F 47.1 °F 89% 30.17 in 10.0 mi East 16.1 mph - 0.00 in   Mostly Cloudy
2:04 PM 50.0 °F 48.2 °F 94% 30.17 in 10.0 mi ENE 15.0 mph - N/A Rain Light Rain
2:42 PM 50.0 °F 46.4 °F 87% 30.17 in 10.0 mi ENE 12.7 mph - N/A Rain Light Rain
2:56 PM 50.5 °F 47.1 °F 88% 30.17 in 10.0 mi East 15.0 mph - 0.01 in Rain Light Rain
3:14 PM 50.0 °F 46.4 °F 87% 30.17 in 10.0 mi East 13.8 mph - N/A   Scattered Clouds
3:36 PM 50.0 °F 46.4 °F 87% 30.17 in 10.0 mi ENE 11.5 mph - N/A   Light Drizzle
3:56 PM 49.8 °F 46.4 °F 88% 30.18 in 10.0 mi ENE 11.5 mph - 0.00 in Rain Light Rain
4:01 PM 50.0 °F 46.4 °F 87% 30.18 in 10.0 mi ENE 12.7 mph - N/A Rain Light Rain
4:21 PM 50.0 °F 46.4 °F 87% 30.18 in 10.0 mi ENE 10.4 mph - N/A Rain Light Rain
4:33 PM 50.0 °F 46.4 °F 87% 30.19 in 10.0 mi ENE 10.4 mph - N/A   Clear
4:56 PM 49.6 °F 46.6 °F 89% 30.19 in 10.0 mi ENE 10.4 mph - 0.03 in   Clear
5:01 PM 50.0 °F 46.4 °F 87% 30.19 in 10.0 mi ENE 6.9 mph - N/A Rain Light Rain
6:56 PM 50.0 °F 47.1 °F 90% 30.21 in 10.0 mi NE 4.6 mph - 0.01 in   Clear
7:56 PM 49.8 °F 46.9 °F 90% 30.21 in 10.0 mi ENE 5.8 mph - N/A   Clear
8:56 PM 49.8 °F 46.4 °F 88% 30.22 in 10.0 mi ENE 4.6 mph - N/A   Overcast
9:56 PM 49.8 °F 46.4 °F 88% 30.23 in 10.0 mi East 3.5 mph - N/A   Overcast
10:56 PM 48.7 °F 45.9 °F 90% 30.23 in 10.0 mi Calm Calm - N/A   Scattered Clouds
11:56 PM 48.9 °F 45.9 °F 89% 30.22 in 10.0 mi Calm Calm - N/A   Clear